AF5AA Weather Reports


Display with metric or nautical units.
time (UTC)temp
F
wind
direction
speed
MPH
gust
MPH
rain 1hr
in
rain 24hr
in
rain mn
in
humidity
%
barometer
mb
20260902122834 76 102 0.0 0.0 0.00 0.00 0.00 94 1014.6
20260902122331 75 102 0.0 0.0 0.00 0.00 0.00 94 1014.6
20260902121830 75 102 0.0 0.0 0.00 0.00 0.00 94 1014.7
20260902121325 75 96 0.0 0.0 0.00 0.00 0.00 94 1014.4
20260902120820 75 75 0.0 1.0 0.00 0.00 0.00 94 1014.4
20260902120317 75 96 0.0 0.0 0.00 0.00 0.00 93 1014.6
20260902115811 75 93 0.0 0.0 0.00 0.00 0.00 93 1014.4
20260902115309 75 93 0.0 0.0 0.00 0.00 0.00 93 1014.7
20260902114804 75 95 0.0 0.0 0.00 0.00 0.00 93 1014.5
20260902114300 75 95 0.0 0.0 0.00 0.00 0.00 93 1014.2
20260902113759 76 94 0.0 0.0 0.00 0.00 0.00 93 1014.5
20260902113255 76 96 0.0 0.0 0.00 0.00 0.00 93 1014.3
20260902112754 76 73 0.0 0.0 0.00 0.00 0.00 93 1014.5
20260902112251 76 97 0.0 1.0 0.00 0.00 0.00 92 1014.5
20260902111746 76 96 0.0 0.0 0.00 0.00 0.00 92 1014.4
20260902111243 76 96 0.0 0.0 0.00 0.00 0.00 92 1014.3
20260902110738 76 94 0.0 0.0 0.00 0.00 0.00 92 1014.2
20260902110234 76 95 0.0 0.0 0.00 0.00 0.00 92 1014.2
20260902105733 76 95 0.0 0.0 0.00 0.00 0.00 91 1014.2
20260902105229 76 100 0.0 0.0 0.00 0.00 0.00 91 1014.1
20260902104724 76 100 0.0 0.0 0.00 0.00 0.00 91 1014.3
20260902104221 76 97 0.0 0.0 0.00 0.00 0.00 91 1014.3
20260902103720 76 99 0.0 0.0 0.00 0.00 0.00 90 1014.3
20260902103219 76 102 0.0 0.0 0.00 0.00 0.00 90 1014.4
20260902102715 76 100 0.0 0.0 0.00 0.00 0.00 90 1014.3
20260902102213 76 94 0.0 1.0 0.00 0.00 0.00 90 1014.3
20260902101708 76 96 0.0 0.0 0.00 0.00 0.00 89 1014.3
20260902101203 76 86 0.0 0.0 0.00 0.00 0.00 89 1014.2
20260902100702 76 95 0.0 0.0 0.00 0.00 0.00 89 1014.4
20260902100157 76 95 0.0 0.0 0.00 0.00 0.00 89 1014.1
20260902095655 76 101 0.0 0.0 0.00 0.00 0.00 89 1014.5
20260902095150 76 96 0.0 0.0 0.00 0.00 0.00 89 1014.5
20260902094645 76 103 0.0 0.0 0.00 0.00 0.00 89 1014.3
20260902094141 76 103 0.0 0.0 0.00 0.00 0.00 89 1014.6
20260902093641 76 106 0.0 0.0 0.00 0.00 0.00 89 1014.1
20260902093136 76 102 0.0 0.0 0.00 0.00 0.00 89 1014.3
20260902092630 76 100 0.0 0.0 0.00 0.00 0.00 89 1014.2
20260902092126 77 103 0.0 0.0 0.00 0.00 0.00 88 1014.1
20260902091625 77 101 0.0 0.0 0.00 0.00 0.00 88 1014.2
20260902091122 77 102 0.0 0.0 0.00 0.00 0.00 87 1014.2
20260902090618 77 101 0.0 0.0 0.00 0.00 0.00 87 1014.4
20260902090117 77 101 0.0 0.0 0.00 0.00 0.00 87 1014.2
20260902085612 77 101 0.0 0.0 0.00 0.00 0.00 87 1014.4
20260902085107 77 101 0.0 0.0 0.00 0.00 0.00 87 1014.2
20260902084603 77 101 0.0 0.0 0.00 0.00 0.00 86 1014.4
20260902084059 77 79 0.0 0.0 0.00 0.00 0.00 86 1014.3
20260902083554 77 97 0.0 0.0 0.00 0.00 0.00 85 1014.4
20260902083054 77 98 0.0 0.0 0.00 0.00 0.00 85 1014.4
20260902082549 77 98 0.0 0.0 0.00 0.00 0.00 85 1014.6
20260902082046 77 98 0.0 0.0 0.00 0.00 0.00 85 1014.3
20260902081542 77 98 0.0 0.0 0.00 0.00 0.00 84 1014.2
20260902081042 78 96 0.0 0.0 0.00 0.00 0.00 84 1014.3
20260902080537 78 95 0.0 0.0 0.00 0.00 0.00 84 1014.3
20260902080033 78 96 0.0 0.0 0.00 0.00 0.00 84 1014.5
20260902075533 78 96 0.0 0.0 0.00 0.00 0.00 83 1014.4
20260902075029 78 96 0.0 0.0 0.00 0.00 0.00 83 1014.4
20260902074524 78 94 0.0 0.0 0.00 0.00 0.00 83 1014.2
20260902074019 78 95 0.0 0.0 0.00 0.00 0.00 83 1014.4
20260902073515 78 95 0.0 0.0 0.00 0.00 0.00 83 1014.7
20260902073012 78 95 0.0 0.0 0.00 0.00 0.00 82 1014.5
20260902072506 78 96 0.0 0.0 0.00 0.00 0.00 82 1014.5
20260902072004 78 99 0.0 0.0 0.00 0.00 0.00 82 1014.5
20260902071502 78 99 0.0 0.0 0.00 0.00 0.00 82 1015.0
20260902070959 78 97 0.0 0.0 0.00 0.00 0.00 81 1014.8
20260902070454 78 97 0.0 0.0 0.00 0.00 0.00 81 1014.8
20260902065953 78 97 0.0 0.0 0.00 0.00 0.00 82 1014.7
20260902065448 78 97 0.0 0.0 0.00 0.00 0.00 81 1014.7
20260902064943 78 96 0.0 0.0 0.00 0.00 0.00 81 1014.7
20260902064439 78 96 0.0 0.0 0.00 0.00 0.00 81 1014.6
20260902063935 78 99 0.0 0.0 0.00 0.00 0.00 81 1014.6
20260902063434 78 98 0.0 0.0 0.00 0.00 0.00 81 1014.6
20260902062929 78 96 0.0 0.0 0.00 0.00 0.00 80 1014.5
20260902062428 78 97 0.0 0.0 0.00 0.00 0.00 80 1015.0
20260902061923 78 95 0.0 0.0 0.00 0.00 0.00 80 1014.6
20260902061418 78 99 0.0 0.0 0.00 0.00 0.00 80 1014.6
20260902060915 78 99 0.0 0.0 0.00 0.00 0.00 79 1014.6
20260902060410 78 98 0.0 0.0 0.00 0.00 0.00 79 1014.8
20260902055906 79 98 0.0 0.0 0.00 0.00 0.00 79 1014.8
20260902055402 79 97 0.0 0.0 0.00 0.00 0.00 78 1014.8
20260902054857 79 92 0.0 0.0 0.00 0.00 0.00 78 1014.7
20260902054352 79 101 0.0 0.0 0.00 0.00 0.00 78 1014.4
20260902053848 79 99 0.0 0.0 0.00 0.00 0.00 78 1014.6
20260902053342 79 97 0.0 0.0 0.00 0.00 0.00 77 1014.6
20260902052842 80 100 0.0 0.0 0.00 0.00 0.00 77 1014.8
20260902052337 80 99 0.0 0.0 0.00 0.00 0.00 76 1014.8
20260902051831 80 98 0.0 0.0 0.00 0.00 0.00 76 1014.6
20260902051326 80 99 0.0 0.0 0.00 0.00 0.00 76 1014.6
20260902050825 80 99 0.0 0.0 0.00 0.00 0.00 75 1014.8
20260902050320 80 98 0.0 0.0 0.00 0.00 0.00 75 1014.6
20260902045815 81 98 0.0 0.0 0.00 0.00 0.00 75 1014.6
20260902045311 81 99 0.0 0.0 0.00 0.00 0.00 73 1014.6
20260902044807 81 98 0.0 0.0 0.00 0.00 0.00 74 1014.7
20260902044302 81 98 0.0 0.0 0.00 0.00 0.00 73 1014.5
20260902043756 81 98 0.0 0.0 0.00 0.00 0.00 73 1014.7
20260902043252 82 99 0.0 0.0 0.00 0.00 0.00 73 1014.5
20260902042751 81 99 0.0 0.0 0.00 0.00 0.00 74 1014.7
20260902042247 82 96 0.0 0.0 0.00 0.00 0.00 73 1014.4
20260902041742 81 96 0.0 0.0 0.00 0.00 0.00 74 1014.9
20260902041242 81 94 0.0 0.0 0.00 0.00 0.00 74 1014.7
20260902040741 82 102 0.0 0.0 0.00 0.00 0.00 75 1014.7
20260902040237 82 101 0.0 0.0 0.00 0.00 0.00 74 1014.7
20260902035735 82 101 0.0 0.0 0.00 0.00 0.00 74 1014.9
20260902035231 82 101 0.0 0.0 0.00 0.00 0.00 73 1014.9
20260902034729 82 99 0.0 0.0 0.00 0.00 0.00 74 1014.8
20260902034225 82 100 0.0 0.0 0.00 0.00 0.00 76 1014.6
20260902033723 81 99 0.0 0.0 0.00 0.00 0.00 74 1014.6
20260902033218 81 99 0.0 0.0 0.00 0.00 0.00 77 1014.6
20260902032716 81 95 0.0 0.0 0.00 0.00 0.00 77 1014.8
20260902032212 82 101 0.0 0.0 0.00 0.00 0.00 76 1014.6
20260902031712 82 101 0.0 0.0 0.00 0.00 0.00 76 1014.6
20260902031207 82 98 0.0 0.0 0.00 0.00 0.00 75 1014.6
20260902030703 82 101 0.0 0.0 0.00 0.00 0.00 74 1014.5
20260902030202 83 103 0.0 0.0 0.00 0.00 0.00 74 1014.5
20260902025702 83 98 0.0 0.0 0.00 0.00 0.00 72 1014.3
20260902025157 83 103 0.0 0.0 0.00 0.00 0.00 72 1014.2
20260902024652 84 102 0.0 0.0 0.00 0.00 0.00 71 1014.2
20260902024147 84 102 0.0 0.0 0.00 0.00 0.00 71 1014.3
20260902023643 84 99 0.0 0.0 0.00 0.00 0.00 71 1013.9
20260902023138 84 104 0.0 0.0 0.00 0.00 0.00 69 1014.0
20260902022637 84 103 0.0 0.0 0.00 0.00 0.00 69 1014.0
20260902022133 85 103 0.0 0.0 0.00 0.00 0.00 69 1013.8
20260902021628 85 103 0.0 0.0 0.00 0.00 0.00 68 1013.9
20260902021123 85 103 0.0 0.0 0.00 0.00 0.00 69 1013.6
20260902020619 85 102 0.0 0.0 0.00 0.00 0.00 68 1013.7
20260902020114 86 101 0.0 0.0 0.00 0.00 0.00 68 1013.6
20260902015610 86 102 0.0 0.0 0.00 0.00 0.00 68 1013.6
20260902015106 86 102 0.0 0.0 0.00 0.00 0.00 67 1013.5
20260902014602 86 102 0.0 0.0 0.00 0.00 0.00 66 1013.7
20260902014057 86 102 0.0 0.0 0.00 0.00 0.00 66 1013.4
20260902013556 87 103 0.0 0.0 0.00 0.00 0.00 65 1013.3
20260902013052 87 102 0.0 0.0 0.00 0.00 0.00 65 1013.2
20260902012547 87 103 0.0 0.0 0.00 0.00 0.00 65 1013.3
20260902012042 87 107 0.0 0.0 0.00 0.00 0.00 65 1013.3
20260902011538 87 102 0.0 0.0 0.00 0.00 0.00 65 1013.4
20260902011037 88 96 0.0 0.0 0.00 0.00 0.00 65 1013.3
20260902010537 88 115 0.0 0.0 0.00 0.00 0.00 64 1013.4
20260902010033 88 74 0.0 1.0 0.00 0.00 0.00 63 1013.3
20260902005531 88 99 0.0 0.0 0.00 0.00 0.00 63 1013.4
20260902005027 88 102 0.0 0.0 0.00 0.00 0.00 63 1013.2
20260902004526 88 109 0.0 0.0 0.00 0.00 0.00 62 1013.3
20260902004022 88 116 0.0 0.0 0.00 0.00 0.00 62 1013.2
20260902003517 89 116 0.0 0.0 0.00 0.00 0.00 62 1013.3
20260902003012 89 104 0.0 0.0 0.00 0.00 0.00 62 1013.2
20260902002508 89 125 0.0 0.0 0.00 0.00 0.00 61 1012.8
20260902002003 89 115 0.0 0.0 0.00 0.00 0.00 61 1013.0
20260902001456 89 122 1.0 1.0 0.00 0.00 0.00 61 1012.8
20260902000952 90 103 0.0 0.0 0.00 0.00 0.00 60 1013.0
20260902000447 90 101 0.0 0.0 0.00 0.00 0.00 60 1013.0
20260901235942 90 117 0.0 0.0 0.00 0.00 0.00 59 1012.5
20260901235437 91 130 0.0 0.0 0.00 0.00 0.00 58 1012.5
20260901234932 91 126 0.0 1.0 0.00 0.00 0.00 57 1012.4
20260901234426 92 153 0.0 1.0 0.00 0.00 0.00 55 1012.4
20260901233921 94 110 0.0 1.0 0.00 0.00 0.00 51 1012.3
20260901233416 96 102 0.0 0.0 0.00 0.00 0.00 47 1012.1
20260901232912 96 92 0.0 0.0 0.00 0.00 0.00 44 1012.0
20260901232406 96 96 0.0 0.0 0.00 0.00 0.00 44 1012.0
20260901231902 96 84 0.0 0.0 0.00 0.00 0.00 44 1012.0
20260901231353 96 112 0.0 0.0 0.00 0.00 0.00 43 1011.9
20260901230849 96 84 0.0 0.0 0.00 0.00 0.00 43 1011.9
20260901230349 96 100 0.0 0.0 0.00 0.00 0.00 42 1012.1
20260901225844 97 100 0.0 0.0 0.00 0.00 0.00 42 1012.1
20260901225343 97 92 1.0 1.0 0.00 0.00 0.00 42 1012.1
20260901224838 97 57 0.0 1.0 0.00 0.00 0.00 42 1012.0
20260901224335 96 116 0.0 1.0 0.00 0.00 0.00 44 1012.0
20260901223831 97 176 0.0 1.0 0.00 0.00 0.00 42 1012.0
20260901223326 97 111 0.0 0.0 0.00 0.00 0.00 41 1012.2
20260901222821 97 56 0.0 1.0 0.00 0.00 0.00 41 1012.2
20260901222318 97 90 0.0 0.0 0.00 0.00 0.00 42 1011.9
20260901221814 98 112 1.0 2.0 0.00 0.00 0.00 41 1012.0
20260901221309 98 104 0.0 0.0 0.00 0.00 0.00 43 1012.0
20260901220808 98 119 1.0 1.0 0.00 0.00 0.00 41 1012.1
20260901220308 98 100 0.0 1.0 0.00 0.00 0.00 41 1012.2
20260901215806 98 61 0.0 1.0 0.00 0.00 0.00 41 1012.2
20260901215306 98 118 1.0 1.0 0.00 0.00 0.00 41 1012.3
20260901214804 98 121 0.0 0.0 0.00 0.00 0.00 40 1012.5
20260901214303 99 106 1.0 1.0 0.00 0.00 0.00 40 1012.5
20260901213758 98 115 1.0 1.0 0.00 0.00 0.00 41 1012.3
20260901213258 99 92 1.0 2.0 0.00 0.00 0.00 41 1012.4
20260901212752 98 26 1.0 1.0 0.00 0.00 0.00 41 1012.6
20260901212249 98 96 1.0 2.0 0.00 0.00 0.00 43 1012.8
20260901211743 98 89 0.0 0.0 0.00 0.00 0.00 43 1012.8
20260901211240 98 105 0.0 0.0 0.00 0.00 0.00 43 1013.1
20260901210735 97 111 0.0 0.0 0.00 0.00 0.00 44 1012.9
20260901210231 95 109 0.0 0.0 0.00 0.00 0.00 47 1013.1
20260901205727 96 94 1.0 2.0 0.00 0.00 0.00 46 1013.2
20260901205226 96 119 0.0 0.0 0.00 0.00 0.00 45 1013.0
20260901204722 95 116 0.0 0.0 0.00 0.00 0.00 49 1013.4
20260901204218 95 110 0.0 0.0 0.00 0.00 0.00 49 1013.3
20260901203713 95 79 0.0 0.0 0.00 0.00 0.00 47 1013.3
20260901203207 95 100 0.0 0.0 0.00 0.00 0.00 48 1013.7
20260901202707 96 80 1.0 1.0 0.00 0.00 0.00 46 1013.5
20260901202203 96 46 1.0 2.0 0.00 0.00 0.00 46 1013.5
20260901201658 96 121 1.0 1.0 0.00 0.00 0.00 46 1013.5
20260901201152 97 130 0.0 0.0 0.00 0.00 0.00 45 1013.7
20260901200651 98 101 0.0 1.0 0.00 0.00 0.00 44 1013.5
20260901200146 97 97 1.0 1.0 0.00 0.00 0.00 45 1013.7
20260901195643 96 65 0.0 1.0 0.00 0.00 0.00 45 1013.7
20260901195138 96 110 0.0 0.0 0.00 0.00 0.00 46 1013.7
20260901194634 97 63 1.0 2.0 0.00 0.00 0.00 45 1013.9
20260901194129 98 115 1.0 2.0 0.00 0.00 0.00 45 1013.9
20260901193624 97 156 1.0 1.0 0.00 0.00 0.00 46 1013.8
20260901193119 97 89 0.0 1.0 0.00 0.00 0.00 46 1013.8
20260901192614 97 109 1.0 1.0 0.00 0.00 0.00 46 1013.9
20260901192109 97 138 1.0 1.0 0.00 0.00 0.00 47 1014.0
20260901191605 96 111 0.0 0.0 0.00 0.00 0.00 47 1014.1
20260901191101 95 152 0.0 1.0 0.00 0.00 0.00 48 1014.1
20260901190556 96 71 2.0 3.0 0.00 0.00 0.00 47 1014.3
20260901190055 95 113 0.0 0.0 0.00 0.00 0.00 50 1014.4
20260901185554 95 89 0.0 0.0 0.00 0.00 0.00 50 1014.6
20260901185053 96 84 0.0 0.0 0.00 0.00 0.00 48 1014.5
20260901184548 96 120 0.0 0.0 0.00 0.00 0.00 49 1014.3
20260901184043 95 96 1.0 1.0 0.00 0.00 0.00 51 1014.5
20260901183538 95 65 1.0 1.0 0.00 0.00 0.00 50 1014.6
20260901183033 94 93 1.0 1.0 0.00 0.00 0.00 52 1014.7
20260901182530 93 114 0.0 0.0 0.00 0.00 0.00 51 1014.8
20260901182024 94 110 0.0 0.0 0.00 0.00 0.00 51 1015.3
20260901181523 94 90 1.0 1.0 0.00 0.00 0.00 51 1015.3
20260901181023 94 110 0.0 0.0 0.00 0.00 0.00 53 1015.1
20260901180521 94 59 0.0 0.0 0.00 0.00 0.00 52 1015.2
20260901180017 95 104 0.0 0.0 0.00 0.00 0.00 51 1015.4
20260901175510 96 132 2.0 3.0 0.00 0.00 0.00 49 1015.4
20260901175005 95 74 0.0 0.0 0.00 0.00 0.00 50 1015.5
20260901174501 95 158 0.0 0.0 0.00 0.00 0.00 49 1015.4
20260901173956 94 167 0.0 0.0 0.00 0.00 0.00 52 1015.7
20260901173451 94 110 1.0 1.0 0.00 0.00 0.00 52 1015.7
20260901172948 95 83 0.0 1.0 0.00 0.00 0.00 51 1015.8
20260901172443 94 167 3.0 3.0 0.00 0.00 0.00 51 1016.0
20260901171941 94 75 0.0 1.0 0.00 0.00 0.00 53 1016.1
20260901171439 93 121 0.0 0.0 0.00 0.00 0.00 53 1016.0
20260901170938 92 127 1.0 1.0 0.00 0.00 0.00 57 1016.1
20260901170433 92 113 0.0 0.0 0.00 0.00 0.00 56 1016.3
20260901165932 93 85 0.0 0.0 0.00 0.00 0.00 55 1016.2
20260901165428 93 100 0.0 0.0 0.00 0.00 0.00 56 1016.6
20260901164924 92 77 0.0 0.0 0.00 0.00 0.00 59 1016.5
20260901164424 90 137 1.0 1.0 0.00 0.00 0.00 60 1016.6
20260901163920 90 109 0.0 0.0 0.00 0.00 0.00 60 1016.6
20260901163414 91 95 0.0 0.0 0.00 0.00 0.00 59 1016.7
20260901162908 91 89 0.0 1.0 0.00 0.00 0.00 59 1016.7
20260901162408 90 134 0.0 0.0 0.00 0.00 0.00 61 1016.5
20260901161902 90 81 0.0 0.0 0.00 0.00 0.00 62 1016.5
20260901161401 90 107 0.0 0.0 0.00 0.00 0.00 61 1016.5
20260901160856 89 106 0.0 0.0 0.00 0.00 0.00 63 1016.6
20260901160353 89 145 0.0 1.0 0.00 0.00 0.00 62 1016.8
20260901155852 90 151 1.0 1.0 0.00 0.00 0.00 61 1016.6
20260901155347 90 128 0.0 0.0 0.00 0.00 0.00 61 1016.9
20260901154843 90 100 0.0 0.0 0.00 0.00 0.00 61 1016.9
20260901154342 90 110 1.0 1.0 0.00 0.00 0.00 61 1016.9
20260901153837 89 102 0.0 0.0 0.00 0.00 0.00 61 1016.8
20260901153332 89 90 0.0 0.0 0.00 0.00 0.00 62 1016.9
20260901152831 89 111 0.0 0.0 0.00 0.00 0.00 62 1016.8
20260901152330 89 96 0.0 0.0 0.00 0.00 0.00 63 1016.7
20260901151826 88 239 1.0 1.0 0.00 0.00 0.00 63 1016.5
20260901151320 88 76 1.0 1.0 0.00 0.00 0.00 67 1016.9
20260901150820 87 67 0.0 1.0 0.00 0.00 0.00 67 1016.8
20260901150317 87 108 0.0 0.0 0.00 0.00 0.00 71 1016.8
20260901145810 87 99 0.0 0.0 0.00 0.00 0.00 71 1016.8
20260901145309 86 105 0.0 0.0 0.00 0.00 0.00 70 1016.6
20260901144805 86 133 0.0 0.0 0.00 0.00 0.00 70 1016.8
20260901144301 86 100 0.0 0.0 0.00 0.00 0.00 72 1016.8
20260901143756 85 123 0.0 0.0 0.00 0.00 0.00 71 1016.9
20260901143252 85 131 0.0 0.0 0.00 0.00 0.00 73 1017.0
20260901142749 84 106 0.0 0.0 0.00 0.00 0.00 74 1016.9
20260901142247 84 110 0.0 0.0 0.00 0.00 0.00 76 1016.8
20260901141743 83 116 0.0 0.0 0.00 0.00 0.00 78 1017.0
20260901141242 82 116 0.0 0.0 0.00 0.00 0.00 80 1017.1
20260901140742 81 115 0.0 0.0 0.00 0.00 0.00 82 1016.9
20260901140240 80 94 0.0 0.0 0.00 0.00 0.00 83 1017.1
20260901135735 79 121 0.0 0.0 0.00 0.00 0.00 84 1017.1
20260901135230 79 105 0.0 0.0 0.00 0.00 0.00 84 1017.1
20260901134726 78 104 0.0 0.0 0.00 0.00 0.00 84 1017.3
20260901134226 78 106 0.0 0.0 0.00 0.00 0.00 86 1017.3
20260901133725 77 106 0.0 0.0 0.00 0.00 0.00 85 1017.3
20260901133224 76 108 0.0 0.0 0.00 0.00 0.00 86 1017.0
20260901132723 76 108 0.0 0.0 0.00 0.00 0.00 87 1017.1
20260901132218 75 108 0.0 0.0 0.00 0.00 0.00 87 1017.1
20260901131713 75 108 0.0 0.0 0.00 0.00 0.00 88 1017.3
20260901131212 75 108 0.0 0.0 0.00 0.00 0.00 88 1017.1
20260901130708 75 108 0.0 0.0 0.00 0.00 0.00 88 1017.1
20260901130207 74 108 0.0 0.0 0.00 0.00 0.00 89 1017.0
20260901125705 74 109 0.0 0.0 0.00 0.00 0.00 90 1017.0
20260901125200 73 110 0.0 0.0 0.00 0.00 0.00 90 1017.0
20260901124655 73 110 0.0 0.0 0.00 0.00 0.00 90 1016.7
20260901124149 73 110 0.0 0.0 0.00 0.00 0.00 90 1016.6
20260901123643 73 110 0.0 0.0 0.00 0.00 0.00 90 1016.8
20260901123143 73 110 0.0 0.0 0.00 0.00 0.00 90 1016.8